[TLELIST] Archives

 

[list_settings.list_name] Current TLEs

October 8th 2014 PDT

HST 1 20580U 90037B 14280.68957903 .00003105 00000-0 19680-3 0 1309 2 20580 028.4715 017.3693 0003407 054.4856 076.5281 15.05877643141695 ISS (ZARYA) 1 25544U 98067A 14281.16456506 .00014937 00000-0 25997-3 0 2115 2 25544 051.6467 259.5727 0002030 148.4272 323.0057 15.50992396908850 CXO 1 25867U 99040B 14284.25845861 .00000036 00000-0 00000+0 0 931 2 25867 076.9901 316.1147 7941268 272.6870 359.9239 00.37805185 12352 ____________________________________________________________________ These 2-Line ...Continue Reading

[list_settings.list_name] Current TLEs

October 7th 2014 PDT

HST 1 20580U 90037B 14279.49029382 .00002943 00000-0 18599-3 0 1292 2 20580 028.4717 025.2583 0003353 042.9413 053.7282 15.05869561141502 ISS (ZARYA) 1 25544U 98067A 14280.19809755 .00015368 00000-0 26751-3 0 2078 2 25544 051.6468 264.3679 0001979 141.9577 329.6212 15.50964375908703 CXO 1 25867U 99040B 14281.61543421 .00000016 00000-0 00000+0 0 922 2 25867 076.9951 316.2184 7944609 272.7353 000.0736 00.37803966 12348 ____________________________________________________________________ These 2-Line ...Continue Reading

[list_settings.list_name] Current TLEs

October 6th 2014 PDT

HST 1 20580U 90037B 14277.77391896 .00003462 00000-0 22093-3 0 1283 2 20580 028.4713 036.5491 0003240 022.2785 111.3586 15.05856610141250 ISS (ZARYA) 1 25544U 98067A 14279.30126069 .00015371 00000-0 26782-3 0 2022 2 25544 051.6472 268.8170 0001891 136.8217 004.0297 15.50936191908566 CXO 1 25867U 99040B 14281.61543421 .00000016 00000-0 00000+0 0 922 2 25867 076.9951 316.2184 7944609 272.7353 000.0736 00.37803966 12348 ____________________________________________________________________ These 2-Line ...Continue Reading

[list_settings.list_name] Current TLEs

October 5th 2014 PDT

HST 1 20580U 90037B 14277.77391896 .00003462 00000-0 22093-3 0 1283 2 20580 028.4713 036.5491 0003240 022.2785 111.3586 15.05856610141250 ISS (ZARYA) 1 25544U 98067A 14278.19937258 .00015097 00000-0 26352-3 0 1980 2 25544 051.6469 274.2825 0002084 141.1804 323.4250 15.50900301908398 CXO 1 25867U 99040B 14278.97126508 .00000174 00000-0 00000+0 0 914 2 25867 077.0025 316.2885 7951268 272.7922 000.1010 00.37804256 12339 ____________________________________________________________________ These 2-Line ...Continue Reading

[list_settings.list_name] Current TLEs

October 4th 2014 PDT

HST 1 20580U 90037B 14276.64542759 .00003464 00000-0 22109-3 0 1273 2 20580 028.4715 043.9731 0003336 012.3835 111.5407 15.05847594141089 ISS (ZARYA) 1 25544U 98067A 14277.16541067 .00015340 00000-0 26794-3 0 1942 2 25544 051.6467 279.4100 0002039 136.0874 311.9058 15.50868968908232 CXO 1 25867U 99040B 14278.97126508 .00000174 00000-0 00000+0 0 914 2 25867 077.0025 316.2885 7951268 272.7922 000.1010 00.37804256 12339 ____________________________________________________________________ These 2-Line ...Continue Reading

[list_settings.list_name] Current TLEs

October 3rd 2014 PDT

HST 1 20580U 90037B 14274.65593259 .00003766 00000-0 24151-3 0 1266 2 20580 028.4708 057.0573 0003092 351.9245 125.6004 15.05829872140781 ISS (ZARYA) 1 25544U 98067A 14276.26432892 .00014934 00000-0 26132-3 0 1907 2 25544 051.6460 283.8780 0002192 137.2211 316.6393 15.50839015908095 CXO 1 25867U 99040B 14276.32579916 .00000383 00000-0 00000+0 0 907 2 25867 076.9995 316.3937 7959505 272.8167 000.0387 00.37805121 12323 ____________________________________________________________________ These 2-Line ...Continue Reading

[list_settings.list_name] Current TLEs

October 2nd 2014 PDT

HST 1 20580U 90037B 14274.65593259 .00003766 00000-0 24151-3 0 1266 2 20580 028.4708 057.0573 0003092 351.9245 125.6004 15.05829872140781 ISS (ZARYA) 1 25544U 98067A 14275.38010417 .00014316 00000-0 25113-3 0 1861 2 25544 051.6459 288.2640 0002106 132.1707 061.8186 15.50809377907957 CXO 1 25867U 99040B 14276.32579916 .00000383 00000-0 00000+0 0 907 2 25867 076.9995 316.3937 7959505 272.8167 000.0387 00.37805121 12323 ____________________________________________________________________ These 2-Line ...Continue Reading

[list_settings.list_name] Current TLEs

October 1st 2014 PDT

HST 1 20580U 90037B 14273.51959009 .00004327 00000-0 27928-3 0 1257 2 20580 028.4707 064.5319 0003045 339.5886 085.6899 15.05820596140604 ISS (ZARYA) 1 25544U 98067A 14274.20687345 .00012360 00000-0 21825-3 0 1819 2 25544 051.6465 294.0846 0002176 130.3437 349.3260 15.50767611907775 CXO 1 25867U 99040B 14276.32579916 .00000383 00000-0 00000+0 0 907 2 25867 076.9995 316.3937 7959505 272.8167 000.0387 00.37805121 12323 ____________________________________________________________________ These 2-Line ...Continue Reading

[list_settings.list_name] Current TLEs

September 30th 2014 PDT

HST 1 20580U 90037B 14271.87818247 .00002236 00000-0 13868-3 0 1246 2 20580 028.4705 075.3265 0002989 321.6227 188.1210 15.05808565140360 ISS (ZARYA) 1 25544U 98067A 14273.23581507 .00011977 00000-0 21194-3 0 1782 2 25544 051.6465 298.9014 0002019 125.3808 329.5521 15.50740753907629 CXO 1 25867U 99040B 14273.67980584 .00000442 00000-0 00000+0 0 893 2 25867 076.9966 316.5090 7964592 272.8225 359.9444 00.37803596 12313 ____________________________________________________________________ These 2-Line ...Continue Reading

[list_settings.list_name] Current TLEs

September 29th 2014 PDT

HST 1 20580U 90037B 14271.87818247 .00002236 00000-0 13868-3 0 1246 2 20580 028.4705 075.3265 0002989 321.6227 188.1210 15.05808565140360 ISS (ZARYA) 1 25544U 98067A 14272.12824250 .00011480 00000-0 20368-3 0 1741 2 25544 051.6470 304.3942 0002046 123.9464 263.7457 15.50711635907454 CXO 1 25867U 99040B 14273.67980584 .00000442 00000-0 00000+0 0 893 2 25867 076.9966 316.5090 7964592 272.8225 359.9444 00.37803596 12313 ____________________________________________________________________ These 2-Line ...Continue Reading
  • This mailing list is a public mailing list - anyone may join or leave, at any time.
  • This mailing list is announce-only.

International Space Station (ISS) / Hubble Space Telescope (HST) / Chandra X-Ray Observatory Orbital Data via EMAIL

Privacy Policy:

Private list